• In Deutschland
  • Länderverzeichnis
  • Für 7 Tage
  • Wassertemperatur
  • Satellitenkarten
  • Wetterkarte
  • Widgets
  • user-avatar
    Anmelden

    Stündliche Wetter Nienstedt am Harz

    Heute, 16 Dezember, Samstag

    Zeit Temperatur Niederschläge Wind Luftdruck Luftfeuchtigkeit
    00:00 +1°C° 0 mm 1 m/S 735 mmHg 92%
    01:00 +1°C° 0 mm 1 m/S 735 mmHg 92%
    02:00 +1°C° 0 mm 1 m/S 736 mmHg 92%
    03:00 +1°C° 0 mm 1 m/S 736 mmHg 92%
    04:00 +1°C° 0 mm 1 m/S 736 mmHg 92%
    05:00 -1°C° 0 mm 2 m/S 736 mmHg 92%
    06:00 +1°C° 0 mm 2 m/S 737 mmHg 92%
    07:00 0°C° 0 mm 3 m/S 737 mmHg 92%
    08:00 0°C° 0 mm 3 m/S 737 mmHg 91%
    09:00 +1°C° 0 mm 3 m/S 738 mmHg 89%
    10:00 0°C° 0 mm 4 m/S 739 mmHg 88%
    11:00 0°C° 0 mm 4 m/S 739 mmHg 85%
    12:00 +1°C° 0 mm 4 m/S 739 mmHg 83%
    13:00 +1°C° 0 mm 4 m/S 740 mmHg 83%
    14:00 0°C° 0 mm 4 m/S 740 mmHg 83%
    15:00 0°C° 0 mm 4 m/S 740 mmHg 84%
    16:00 0°C° 0 mm 4 m/S 741 mmHg 85%
    17:00 0°C° 0 mm 4 m/S 741 mmHg 86%
    18:00 -1°C° 0 mm 4 m/S 742 mmHg 87%
    19:00 -1°C° 0 mm 5 m/S 742 mmHg 88%
    20:00 -1°C° 0 mm 4 m/S 742 mmHg 89%
    21:00 -1°C° 0 mm 4 m/S 743 mmHg 90%
    22:00 -1°C° 0 mm 4 m/S 743 mmHg 91%
    23:00 -1°C° 0 mm 4 m/S 744 mmHg 91%

    Morgen, 17 Dezember, Sonntag

    Zeit Temperatur Niederschläge Wind Luftdruck Luftfeuchtigkeit
    00:00 -1°C° 0 mm 4 m/S 744 mmHg 91%
    01:00 -1°C° 0 mm 4 m/S 744 mmHg 91%
    02:00 -1°C° 0 mm 4 m/S 745 mmHg 91%
    03:00 -2°C° 0 mm 4 m/S 745 mmHg 91%
    04:00 -2°C° 0 mm 4 m/S 745 mmHg 91%
    05:00 -2°C° 0 mm 4 m/S 746 mmHg 92%
    06:00 -2°C° 0 mm 4 m/S 746 mmHg 92%
    07:00 -2°C° 0 mm 4 m/S 747 mmHg 92%
    08:00 -2°C° 0 mm 4 m/S 747 mmHg 91%
    09:00 -1°C° 0 mm 4 m/S 748 mmHg 90%
    10:00 0°C° 0 mm 3 m/S 748 mmHg 89%
    11:00 0°C° 0 mm 3 m/S 749 mmHg 87%
    12:00 +1°C° 0 mm 3 m/S 749 mmHg 85%
    13:00 +1°C° 0 mm 3 m/S 749 mmHg 83%
    14:00 +1°C° 0 mm 3 m/S 750 mmHg 86%
    15:00 0°C° 0 mm 3 m/S 750 mmHg 88%
    16:00 +1°C° 0 mm 2 m/S 750 mmHg 91%
    17:00 +1°C° 0 mm 2 m/S 750 mmHg 92%
    18:00 -1°C° 0 mm 2 m/S 751 mmHg 93%
    19:00 -1°C° 0 mm 2 m/S 751 mmHg 94%
    20:00 -1°C° 0 mm 3 m/S 751 mmHg 93%
    21:00 -1°C° 0 mm 3 m/S 751 mmHg 93%
    22:00 -1°C° 0 mm 3 m/S 751 mmHg 93%
    23:00 -1°C° 0 mm 3 m/S 751 mmHg 91%

    übermorgen, 18 Dezember, Montag

    Zeit Temperatur Niederschläge Wind Luftdruck Luftfeuchtigkeit
    00:00 -2°C° 0 mm 4 m/S 751 mmHg 90%
    01:00 -1°C° 0 mm 4 m/S 750 mmHg 89%
    02:00 -1°C° 0,2 mm 4 m/S 750 mmHg 87%
    03:00 -1°C° 0,2 mm 5 m/S 749 mmHg 85%
    04:00 -1°C° 0,2 mm 5 m/S 748 mmHg 84%
    05:00 -1°C° 1 mm 5 m/S 748 mmHg 86%
    06:00 -1°C° 1 mm 5 m/S 747 mmHg 88%
    07:00 -1°C° 1 mm 5 m/S 747 mmHg 90%
    08:00 -1°C° 0,4 mm 4 m/S 747 mmHg 91%
    09:00 0°C° 0,4 mm 4 m/S 748 mmHg 92%
    10:00 +1°C° 0,4 mm 3 m/S 748 mmHg 94%
    11:00 +1°C° 0,1 mm 3 m/S 748 mmHg 95%
    12:00 +2°C° 0,1 mm 2 m/S 749 mmHg 95%
    13:00 +3°C° 0,1 mm 2 m/S 749 mmHg 96%
    14:00 +3°C° 0 mm 2 m/S 749 mmHg 97%
    15:00 +2°C° 0 mm 2 m/S 750 mmHg 97%
    16:00 +2°C° 0 mm 2 m/S 751 mmHg 97%
    17:00 +2°C° 0 mm 2 m/S 751 mmHg 97%
    18:00 +2°C° 0 mm 2 m/S 752 mmHg 97%
    19:00 +2°C° 0 mm 2 m/S 753 mmHg 97%
    20:00 +2°C° 0 mm 2 m/S 753 mmHg 97%
    21:00 +2°C° 0 mm 2 m/S 754 mmHg 97%
    22:00 +2°C° 0 mm 2 m/S 754 mmHg 97%
    23:00 +2°C° 0 mm 2 m/S 755 mmHg 96%

    19 Dezember, Dienstag

    Zeit Temperatur Niederschläge Wind Luftdruck Luftfeuchtigkeit
    00:00 +2°C° 0 mm 2 m/S 755 mmHg 96%
    01:00 +1°C° 0 mm 2 m/S 756 mmHg 95%
    02:00 +1°C° 0 mm 2 m/S 756 mmHg 95%
    03:00 +1°C° 0 mm 2 m/S 756 mmHg 94%
    04:00 +1°C° 0 mm 2 m/S 756 mmHg 94%
    05:00 +1°C° 0 mm 2 m/S 757 mmHg 93%
    06:00 +1°C° 0 mm 2 m/S 757 mmHg 92%
    07:00 +1°C° 0 mm 2 m/S 757 mmHg 92%
    08:00 +1°C° 0 mm 2 m/S 757 mmHg 92%
    09:00 0°C° 0 mm 3 m/S 758 mmHg 92%
    10:00 +1°C° 0 mm 3 m/S 758 mmHg 92%
    11:00 +1°C° 0 mm 3 m/S 758 mmHg 93%
    12:00 +2°C° 0 mm 3 m/S 758 mmHg 93%
    13:00 +1°C° 0 mm 4 m/S 758 mmHg 94%
    14:00 +1°C° 0,1 mm 4 m/S 758 mmHg 94%
    15:00 +1°C° 0,1 mm 4 m/S 758 mmHg 94%
    16:00 +1°C° 0,1 mm 4 m/S 758 mmHg 95%
    17:00 +1°C° 0 mm 4 m/S 758 mmHg 94%
    18:00 +1°C° 0 mm 4 m/S 758 mmHg 94%
    19:00 +1°C° 0 mm 4 m/S 758 mmHg 94%
    20:00 +1°C° 0 mm 4 m/S 758 mmHg 94%
    21:00 +1°C° 0 mm 4 m/S 758 mmHg 94%
    22:00 +1°C° 0 mm 5 m/S 758 mmHg 94%
    23:00 +1°C° 0 mm 5 m/S 757 mmHg 94%

    20 Dezember, Mittwoch

    Zeit Temperatur Niederschläge Wind Luftdruck Luftfeuchtigkeit
    00:00 +1°C° 0 mm 4 m/S 757 mmHg 94%
    01:00 +1°C° 0 mm 4 m/S 757 mmHg 94%
    02:00 +1°C° 0 mm 4 m/S 757 mmHg 94%
    03:00 +1°C° 0 mm 4 m/S 757 mmHg 95%
    04:00 +3°C° 0 mm 4 m/S 756 mmHg 95%
    05:00 +3°C° 0 mm 4 m/S 756 mmHg 95%
    06:00 +4°C° 0 mm 3 m/S 756 mmHg 96%
    07:00 +4°C° 0 mm 3 m/S 756 mmHg 96%
    08:00 +4°C° 0 mm 3 m/S 757 mmHg 96%
    09:00 +5°C° 0 mm 2 m/S 757 mmHg 97%
    10:00 +5°C° 0 mm 2 m/S 757 mmHg 97%
    11:00 +5°C° 0,1 mm 2 m/S 757 mmHg 97%
    12:00 +5°C° 0,1 mm 2 m/S 757 mmHg 97%
    13:00 +5°C° 0,1 mm 3 m/S 757 mmHg 97%
    14:00 +5°C° 0,1 mm 3 m/S 756 mmHg 97%
    15:00 +5°C° 0,1 mm 3 m/S 756 mmHg 96%
    16:00 +5°C° 0,1 mm 3 m/S 756 mmHg 96%
    17:00 +5°C° 0 mm 3 m/S 757 mmHg 96%
    18:00 +7°C° 0 mm 3 m/S 757 mmHg 96%
    19:00 +7°C° 0 mm 3 m/S 757 mmHg 96%
    20:00 +7°C° 0,2 mm 3 m/S 757 mmHg 96%
    21:00 +7°C° 0,2 mm 3 m/S 757 mmHg 96%
    22:00 +7°C° 0,2 mm 3 m/S 757 mmHg 96%
    23:00 +6°C° 0,1 mm 4 m/S 757 mmHg 96%

    21 Dezember, Donnerstag

    Zeit Temperatur Niederschläge Wind Luftdruck Luftfeuchtigkeit
    00:00 +7°C° 0,1 mm 4 m/S 757 mmHg 96%
    01:00 +7°C° 0,1 mm 4 m/S 756 mmHg 96%
    02:00 +7°C° 0,1 mm 4 m/S 756 mmHg 95%
    03:00 +7°C° 0,1 mm 4 m/S 756 mmHg 95%
    04:00 +7°C° 0,1 mm 4 m/S 756 mmHg 94%
    05:00 +7°C° 0 mm 5 m/S 756 mmHg 94%
    06:00 +7°C° 0 mm 5 m/S 756 mmHg 93%
    07:00 +7°C° 0 mm 5 m/S 756 mmHg 93%
    08:00 +7°C° 0,1 mm 5 m/S 756 mmHg 92%
    09:00 +7°C° 0,1 mm 5 m/S 756 mmHg 92%
    10:00 +7°C° 0,1 mm 5 m/S 756 mmHg 91%
    11:00 +7°C° 0,4 mm 5 m/S 755 mmHg 91%
    12:00 +7°C° 0,4 mm 5 m/S 755 mmHg 91%
    13:00 +8°C° 0,4 mm 5 m/S 755 mmHg 90%
    14:00 +7°C° 0,2 mm 5 m/S 754 mmHg 90%
    15:00 +7°C° 0,2 mm 5 m/S 754 mmHg 90%
    16:00 +7°C° 0,2 mm 6 m/S 754 mmHg 89%
    17:00 +7°C° 0 mm 6 m/S 754 mmHg 89%
    18:00 +7°C° 0 mm 6 m/S 754 mmHg 88%
    19:00 +7°C° 0 mm 6 m/S 754 mmHg 87%
    20:00 +7°C° 0,1 mm 6 m/S 753 mmHg 87%
    21:00 +7°C° 0,1 mm 6 m/S 753 mmHg 87%
    22:00 +7°C° 0,1 mm 6 m/S 752 mmHg 87%
    23:00 +7°C° 0,1 mm 6 m/S 751 mmHg 86%
    Mehr zeigen